Weather History for KACB - May, 2013

Change the Weather History Date:

Tuesday, May 28, 2013

  Actual Average (KTVC) Record (KTVC)
Temperature  
Mean Temperature 58 °F 58 °F  
Max Temperature 61 °F 70 °F 95 °F (1978)
Min Temperature 55 °F 46 °F 29 °F (2008)
Degree Days  
Heating Degree Days 7 8  
Month to date heating degree days 347  
Since 1 July heating degree days 7414  
Cooling Degree Days 0 1  
Month to date cooling degree days 11  
Year to date cooling degree days 14  
Growing Degree Days 8 (Base 50)    
Moisture  
Dew Point 51 °F    
Average Humidity 80    
Maximum Humidity 97    
Minimum Humidity 41    
Precipitation  
Precipitation 0.00 in 0.08 in 0.64 in (1973)
Month to date precipitation 2.33  
Year to date precipitation 11.29  
Sea Level Pressure  
Sea Level Pressure 29.85 in    
Wind  
Wind Speed 4 mph (SE)    
Max Wind Speed 8 mph    
Max Gust Speed -    
Visibility 8 miles    
Events Rain    
T = Trace of Precipitation, MM = Missing Value Source: NWS Daily Summary

Daily Weather History Graph

Daily Weather History Graph

Search for Another Location

Airport or City:

Trip Planner

Search our weather history database for the weather conditions in past years. The results will help you decide how hot, cold, wet, or windy it might be!

Date:

Astronomy

May. 28, 2013 Rise Set
Actual Time 5:59 AM EDT 9:17 PM EDT
Civil Twilight 5:23 AM EDT 9:53 PM EDT
Nautical Twilight 4:37 AM EDT 10:39 PM EDT
Astronomical Twilight 3:39 AM EDT 11:38 PM EDT
Moon No Moon Rise 9:51 AM EDT (5/28)
Length of Visible Light 16h 29m
Length of Day
15h 17m
Waning Gibbous, 83% of the Moon is Illuminated
May 28
Waning Gibbous
May 31
Last Quarter
Jun 8
New
Jun 16
First Quarter
Jun 23
Full

Hourly Weather History & Observations

Time (EDT) Temp. Dew Point Humidity Pressure Visibility Wind Dir Wind Speed Gust Speed Precip Events Conditions
12:13 AM 60.3 °F 36.7 °F 41% 29.99 in 10.0 mi East 5.8 mph - N/A   Mostly Cloudy
12:33 AM 59.9 °F 36.9 °F 42% 29.98 in 10.0 mi ENE 4.6 mph - N/A   Overcast
12:53 AM 59.4 °F 36.7 °F 43% 29.98 in 10.0 mi East 3.5 mph - N/A   Overcast
1:13 AM 59.0 °F 36.7 °F 43% 29.98 in 10.0 mi ENE 3.5 mph - N/A   Mostly Cloudy
1:33 AM 58.5 °F 36.7 °F 44% 29.97 in 10.0 mi East 4.6 mph - N/A   Scattered Clouds
1:53 AM 58.3 °F 36.3 °F 44% 29.98 in 10.0 mi SE 4.6 mph - N/A   Mostly Cloudy
2:13 AM 58.1 °F 36.5 °F 44% 29.97 in 10.0 mi SE 5.8 mph - N/A   Overcast
2:33 AM 57.6 °F 37.8 °F 48% 29.96 in 10.0 mi ESE 4.6 mph - N/A   Mostly Cloudy
2:53 AM 57.2 °F 38.8 °F 50% 29.94 in 10.0 mi ESE 3.5 mph - N/A   Scattered Clouds
3:14 AM 56.7 °F 40.3 °F 54% 29.93 in 10.0 mi ESE 4.6 mph - N/A   Mostly Cloudy
3:33 AM 56.7 °F 41.5 °F 57% 29.93 in 10.0 mi ESE 4.6 mph - N/A   Mostly Cloudy
3:53 AM 56.5 °F 43.0 °F 61% 29.92 in 10.0 mi SE 5.8 mph - N/A   Overcast
4:14 AM 56.5 °F 44.6 °F 64% 29.93 in 10.0 mi SSE 5.8 mph - N/A   Overcast
4:33 AM 56.5 °F 45.5 °F 67% 29.93 in 10.0 mi SSE 8.1 mph - N/A   Overcast
4:53 AM 56.3 °F 45.9 °F 68% 29.92 in 10.0 mi SSE 3.5 mph - N/A   Overcast
5:13 AM 56.3 °F 45.9 °F 68% 29.92 in 10.0 mi Calm Calm - N/A   Overcast
5:33 AM 56.3 °F 46.4 °F 69% 29.93 in 10.0 mi SSE 4.6 mph - N/A   Overcast
5:53 AM 56.3 °F 46.8 °F 70% 29.92 in 10.0 mi ESE 6.9 mph - N/A   Overcast
6:13 AM 55.9 °F 47.1 °F 72% 29.92 in 10.0 mi ESE 5.8 mph - N/A   Overcast
6:33 AM 55.9 °F 47.3 °F 73% 29.92 in 10.0 mi SE 3.5 mph - N/A   Overcast
6:53 AM 55.9 °F 47.5 °F 73% 29.92 in 10.0 mi SE 3.5 mph - N/A   Overcast
7:13 AM 56.3 °F 48.0 °F 74% 29.91 in 10.0 mi ESE 5.8 mph - N/A   Overcast
7:33 AM 55.9 °F 48.2 °F 75% 29.90 in 10.0 mi East 3.5 mph - N/A   Overcast
7:53 AM 55.9 °F 48.6 °F 76% 29.91 in 10.0 mi SE 4.6 mph - N/A   Overcast
8:14 AM 56.1 °F 49.1 °F 77% 29.90 in 10.0 mi SE 6.9 mph - N/A   Overcast
8:33 AM 56.3 °F 49.3 °F 77% 29.90 in 10.0 mi ESE 3.5 mph - N/A   Overcast
8:53 AM 56.3 °F 49.6 °F 78% 29.89 in 10.0 mi ESE 6.9 mph - N/A   Overcast
9:13 AM 56.3 °F 50.0 °F 79% 29.88 in 10.0 mi SE 8.1 mph - N/A   Overcast
9:33 AM 56.3 °F 50.2 °F 80% 29.87 in 10.0 mi ESE 3.5 mph - N/A   Overcast
9:54 AM 56.7 °F 50.4 °F 79% 29.87 in 10.0 mi East 6.9 mph - N/A   Overcast
10:13 AM 57.4 °F 50.9 °F 79% 29.87 in 10.0 mi ESE 4.6 mph - N/A   Overcast
10:34 AM 57.4 °F 51.3 °F 80% 29.87 in 10.0 mi SSE 6.9 mph - N/A   Overcast
10:53 AM 57.4 °F 51.4 °F 81% 29.87 in 10.0 mi SSE 8.1 mph - N/A   Overcast
11:13 AM 57.0 °F 52.0 °F 83% 29.87 in 7.0 mi SSE 5.8 mph - N/A Rain Light Rain
11:34 AM 56.5 °F 52.9 °F 88% 29.87 in 7.0 mi SSE 4.6 mph - N/A Rain Light Rain
11:53 AM 56.3 °F 52.9 °F 88% 29.87 in 3.0 mi Calm Calm - N/A Rain Rain
12:13 PM 55.8 °F 53.4 °F 92% 29.85 in 3.0 mi ENE 3.5 mph - N/A Rain Rain
12:34 PM 55.6 °F 53.6 °F 93% 29.83 in 4.0 mi Calm Calm - N/A Rain Light Rain
12:53 PM 56.1 °F 53.8 °F 92% 29.83 in 7.0 mi East 4.6 mph - N/A Rain Light Rain
1:13 PM 56.7 °F 54.3 °F 92% 29.83 in 5.0 mi ESE 3.5 mph - N/A Rain Rain
1:34 PM 56.8 °F 54.5 °F 92% 29.81 in 7.0 mi East 3.5 mph - N/A Rain Light Rain
1:53 PM 57.4 °F 54.5 °F 90% 29.82 in 10.0 mi SE 3.5 mph - N/A Rain Light Rain
2:13 PM 57.4 °F 54.5 °F 90% 29.81 in 7.0 mi Calm Calm - N/A Rain Light Rain
2:34 PM 57.4 °F 54.9 °F 91% 29.81 in 10.0 mi ESE 5.8 mph - N/A Rain Light Rain
2:53 PM 57.6 °F 55.0 °F 91% 29.81 in 7.0 mi Calm Calm - N/A Rain Light Rain
3:14 PM 57.9 °F 55.2 °F 91% 29.81 in 10.0 mi Calm Calm - N/A Rain Light Rain
3:34 PM 57.9 °F 55.8 °F 92% 29.80 in 5.0 mi Calm Calm - N/A Rain Rain
3:53 PM 58.1 °F 56.3 °F 94% 29.80 in 7.0 mi Calm Calm - N/A Rain Light Rain
4:14 PM 58.6 °F 56.7 °F 93% 29.80 in 10.0 mi ESE 3.5 mph - N/A Rain Light Rain
4:33 PM 59.0 °F 57.2 °F 94% 29.79 in 10.0 mi Calm Calm - N/A Rain Light Rain
4:53 PM 59.9 °F 57.6 °F 92% 29.79 in 5.0 mi SSE 3.5 mph - N/A Rain Light Rain
5:14 PM 59.9 °F 57.7 °F 93% 29.78 in 7.0 mi SSW 3.5 mph - N/A Rain Light Rain
5:33 PM 59.9 °F 58.1 °F 94% 29.78 in 4.0 mi South 3.5 mph - N/A Rain Rain
5:53 PM 59.9 °F 58.3 °F 94% 29.78 in 3.0 mi Calm Calm - N/A Rain Light Rain
6:14 PM 59.9 °F 58.5 °F 95% 29.77 in 10.0 mi Calm Calm - N/A   Overcast
6:33 PM 60.1 °F 58.6 °F 95% 29.76 in 7.0 mi Calm Calm - N/A   Overcast
6:54 PM 60.8 °F 59.0 °F 94% 29.76 in 7.0 mi Calm Calm - N/A   Overcast
7:14 PM 60.6 °F 59.2 °F 95% 29.76 in 7.0 mi Calm Calm - N/A   Overcast
7:33 PM 60.8 °F 59.4 °F 95% 29.76 in 5.0 mi Calm Calm - N/A   Overcast
7:54 PM 61.2 °F 59.9 °F 96% 29.75 in 5.0 mi Calm Calm - N/A   Overcast
8:14 PM 61.3 °F 60.1 °F 96% 29.75 in 5.0 mi Calm Calm - N/A   Overcast
8:33 PM 61.0 °F 59.9 °F 96% 29.76 in 4.0 mi Calm Calm - N/A   Overcast
8:54 PM 61.3 °F 60.3 °F 96% 29.76 in 3.0 mi Calm Calm - N/A   Overcast
9:14 PM 60.8 °F 59.9 °F 97% 29.75 in 1.5 mi Calm Calm - N/A   Overcast
9:33 PM 60.8 °F 59.9 °F 97% 29.74 in 5.0 mi Calm Calm - N/A   Overcast
9:54 PM 60.8 °F 59.9 °F 97% 29.75 in 5.0 mi Calm Calm - N/A   Overcast
10:13 PM 61.0 °F 60.1 °F 97% 29.76 in 5.0 mi Calm Calm - N/A   Overcast
10:34 PM 61.2 °F 60.3 °F 97% 29.76 in 5.0 mi Calm Calm - N/A   Overcast
10:54 PM 61.0 °F 60.1 °F 97% 29.75 in 2.5 mi Calm Calm - N/A   Overcast
11:13 PM 60.4 °F 59.5 °F 97% 29.75 in 3.0 mi Calm Calm - N/A   Overcast
11:34 PM 60.8 °F 59.9 °F 97% 29.76 in 3.0 mi Calm Calm - N/A   Overcast
11:53 PM 60.8 °F 59.9 °F 97% 29.74 in 3.0 mi Calm Calm - N/A   Overcast